Location: Nordegg
(52.4712°N, 116.0743°W)
Time: 08:53:32
(UTC+00:00)

Envisat - Pass Details

Date: 03 December 2021
Orbit: 764 x 766 km, 98.2° (Epoch: 25 January)

Event Time Altitude Azimuth Distance (km) Brightness Sun altitude
Rises 11:09:12 0° 30° (NNE) 3,247 6.8 -39.3°
Reaches altitude 10° 11:13:11 10° 61° (ENE) 2,313 6.1 -38.7°
Maximum altitude 11:15:05 12° 83° (E) 2,172 6.0 -38.4°
Drops below altitude 10° 11:17:00 10° 105° (ESE) 2,306 6.0 -38.1°
Sets 11:20:56 0° 136° (SE) 3,224 6.6 -37.5°
